Regional Weather Roundup
Issued by NWS

Home | Current Version | Previous Version | Text Only | Print | Product List | Glossary On
Versions: 1 2 3 4 5 6 7 8 9 10 11 12 13 14 15 16 17 18 19 20 21 22 23 24 25 26 27 28 29 30 31 32 33 34 35 36 37 38 39 40 41 42 43 44 45 46 47 48 49 50
000
ASUS44 KBMX 250810
RWRAL

ALABAMA REGIONAL WEATHER ROUNDUP
NATIONAL WEATHER SERVICE BIRMINGHAM AL
300 AM CDT FRI JUL 25 2014

NOTE: "FAIR" INDICATES FEW OR NO CLOUDS BELOW 12,000 FEET
WITH NO SIGNIFICANT WEATHER AND/OR OBSTRUCTIONS TO VISIBILITY.

THE REMARK "TC" DENOTES TEMPERATURE IN DEGREES CELSIUS.

ALZ001>011-014-016>018-020-250900-
NORTH ALABAMA

CITY           SKY/WX    TMP DP  RH WIND       PRES   REMARKS
MUSCLE SHOALS  CLEAR     64  61  90 CALM      30.01S FOG
HUNTSVILLE     CLEAR     67  64  90 NW3       29.99F FOG
DECATUR        CLEAR     63  63 100 CALM      30.00F FOG
HALEYVILLE     FAIR      62  62 100 CALM      30.04S FOG
GADSDEN        CLEAR     66  64  94 CALM      29.99S
$$

ALZ012-013-022-023-030>036-040>044-250900-
WEST CENTRAL ALABAMA

CITY           SKY/WX    TMP DP  RH WIND       PRES   REMARKS
TUSCALOOSA     CLEAR     69  66  90 CALM      29.98F
$$

ALZ015-024>027-033>036-040>044-250900-
CENTRAL ALABAMA

CITY           SKY/WX    TMP DP  RH WIND       PRES   REMARKS
BIRMINGHAM     CLEAR     70  66  87 CALM      30.01S
MONTGOMERY     MOCLDY    76  72  87 CALM      29.98F
SHELBY CO ARPT CLEAR     71  69  93 CALM      29.99F FOG
MAXWELL AFB    CLOUDY    76  75  96 VRB1      29.98F
GREENVILLE     FAIR      75  72  90 CALM      29.99S
$$

ALZ019-021-028-029-037-038-045>048-250900-
EAST CENTRAL ALABAMA

CITY           SKY/WX    TMP DP  RH WIND       PRES   REMARKS
ANNISTON       CLEAR     70  68  93 SE3       29.99F
ALEXANDER CITY MOCLDY    76  71  85 SW3       30.01S
AUBURN         MOCLDY    73  68  83 W3        30.04S
$$

ALZ051>064-250900-
SOUTHWEST ALABAMA

CITY           SKY/WX    TMP DP  RH WIND       PRES   REMARKS
MOBILE         CLEAR     74  74 100 CALM      29.98F
BROOKLEY FIELD CLEAR     74  73  97 NW3       29.98F
EVERGREEN      CLEAR     73  71  93 CALM      29.99F
$$

ALZ049-050-065>069-250900-
SOUTHEAST ALABAMA

CITY           SKY/WX    TMP DP  RH WIND       PRES   REMARKS
DOTHAN         CLEAR     75  73  93 W5        30.03S
OZARK          CLEAR     74  73  96 W3        29.99F
TROY           CLEAR     75  73  93 CALM      29.99F
EUFAULA        FAIR      77  72  84 CALM      29.98R
$$


USA.gov is the U.S. government's official web portal to all federal, state and local government web resources and services.